Portada
METAR-TAF:

METAR-TAF

Aeroports :

Black River Falls, Wisconsin, Estats Units d'Amèrica

latitud: 44-15-03N, longitud: 090-51-19W, altitud: 255 m

Observació

L'informe es va fer fa 13 minuts, a les 08:35 UTC
Vent calma
Temperatura 15°C
Humitat 100%
Pressió 1009 hPa
Visibilitat: 11.3 km
Núvols disperses a una alçada de 4400 ft
Núvols disperses a una alçada de 4900 ft

METAR: KBCK 250835Z AUTO 00000KT 7SM SCT044 SCT049 15/15 A2981 RMK AO2 LTG DSNT SE T01450145

Hora: 03:48 (08:48 UTC)


TAF: manca

Observacions i pronòstics meteorològics de més de 4000 aeroports (METAR i TAF).

Les estacions disponibles són els punts grocs i vermells al mapa.

Posi el ratolí al punt desitjat per veure el nom de l'estació.

Feu clic per veure les observacions i els pronòstics meteorològics.

Per canviar el mapa: feu clic els botons verds amb una creu de color negre per apropar; al botó verd amb un guió per allunyar la imatge; o en les fletxes verdes per a mapes adjacents.


METAR-TAF: